EN

Hourly Weather Dzierzgow

Today, 31 October, Saturday

Time Temperature Precipitation Wind Pressure Humidity
00:00 +9°C° 0 mm 1 mps 754 mmHg 87%
01:00 +8°C° 0 mm 1 mps 754 mmHg 89%
02:00 +8°C° 0 mm 1 mps 755 mmHg 89%
03:00 +8°C° 0 mm 1 mps 755 mmHg 89%
04:00 +6°C° 0 mm 2 mps 756 mmHg 89%
05:00 +7°C° 0 mm 1 mps 756 mmHg 90%
06:00 +7°C° 0 mm 1 mps 757 mmHg 90%
07:00 +6°C° 0 mm 1 mps 758 mmHg 90%
08:00 +7°C° 0 mm 1 mps 758 mmHg 84%
09:00 +8°C° 0 mm 0 mps 758 mmHg 77%
10:00 +9°C° 0 mm 0 mps 758 mmHg 71%
11:00 +11°C° 0 mm 1 mps 758 mmHg 68%
12:00 +11°C° 0 mm 1 mps 758 mmHg 65%
13:00 +12°C° 0 mm 2 mps 759 mmHg 63%
14:00 +11°C° 0 mm 1 mps 759 mmHg 66%
15:00 +10°C° 0 mm 1 mps 759 mmHg 69%
16:00 +10°C° 0 mm 1 mps 759 mmHg 72%
17:00 +9°C° 0 mm 1 mps 759 mmHg 75%
18:00 +9°C° 0 mm 1 mps 759 mmHg 77%
19:00 +8°C° 0 mm 1 mps 759 mmHg 80%
20:00 +8°C° 0 mm 1 mps 759 mmHg 81%
21:00 +8°C° 0 mm 1 mps 759 mmHg 83%
22:00 +8°C° 0 mm 1 mps 759 mmHg 84%
23:00 +6°C° 0 mm 2 mps 759 mmHg 85%

Tomorrow, 1 November, Sunday

Time Temperature Precipitation Wind Pressure Humidity
00:00 +6°C° 0 mm 2 mps 759 mmHg 86%
01:00 +6°C° 0 mm 2 mps 759 mmHg 87%
02:00 +5°C° 0 mm 2 mps 758 mmHg 87%
03:00 +4°C° 0 mm 3 mps 758 mmHg 87%
04:00 +4°C° 0 mm 3 mps 758 mmHg 88%
05:00 +4°C° 0 mm 3 mps 757 mmHg 87%
06:00 +4°C° 0 mm 3 mps 757 mmHg 87%
07:00 +3°C° 0 mm 3 mps 757 mmHg 87%
08:00 +5°C° 0 mm 4 mps 757 mmHg 81%
09:00 +6°C° 0 mm 4 mps 756 mmHg 75%
10:00 +8°C° 0 mm 5 mps 756 mmHg 68%
11:00 +10°C° 0 mm 4 mps 756 mmHg 67%
12:00 +11°C° 0 mm 4 mps 755 mmHg 65%
13:00 +12°C° 0 mm 4 mps 755 mmHg 63%
14:00 +11°C° 0 mm 4 mps 754 mmHg 67%
15:00 +11°C° 0 mm 3 mps 754 mmHg 72%
16:00 +10°C° 0 mm 3 mps 754 mmHg 76%
17:00 +10°C° 0 mm 3 mps 753 mmHg 78%
18:00 +10°C° 0 mm 3 mps 753 mmHg 81%
19:00 +10°C° 0 mm 4 mps 753 mmHg 83%
20:00 +10°C° 0.7 mm 3 mps 753 mmHg 87%
21:00 +10°C° 0.7 mm 3 mps 753 mmHg 91%
22:00 +10°C° 0.7 mm 3 mps 752 mmHg 95%
23:00 +11°C° 0.4 mm 3 mps 752 mmHg 95%

Day after tomorrow, 2 November, Monday

Time Temperature Precipitation Wind Pressure Humidity
00:00 +11°C° 0.4 mm 3 mps 752 mmHg 95%
01:00 +11°C° 0.4 mm 3 mps 752 mmHg 95%
02:00 +11°C° 0 mm 3 mps 752 mmHg 94%
03:00 +11°C° 0 mm 3 mps 752 mmHg 94%
04:00 +11°C° 0 mm 3 mps 751 mmHg 94%
05:00 +11°C° 0.2 mm 3 mps 751 mmHg 94%
06:00 +11°C° 0.2 mm 3 mps 751 mmHg 94%
07:00 +11°C° 0.2 mm 3 mps 751 mmHg 94%
08:00 +12°C° 0 mm 3 mps 751 mmHg 93%
09:00 +12°C° 0 mm 3 mps 752 mmHg 92%
10:00 +13°C° 0 mm 4 mps 752 mmHg 91%
11:00 +13°C° 0 mm 4 mps 752 mmHg 92%
12:00 +13°C° 0 mm 4 mps 752 mmHg 92%
13:00 +13°C° 0 mm 4 mps 752 mmHg 93%
14:00 +13°C° 0 mm 4 mps 752 mmHg 93%
15:00 +13°C° 0 mm 4 mps 752 mmHg 94%
16:00 +13°C° 0 mm 4 mps 752 mmHg 94%
17:00 +13°C° 0 mm 4 mps 752 mmHg 94%
18:00 +13°C° 0 mm 4 mps 752 mmHg 95%
19:00 +13°C° 0 mm 4 mps 752 mmHg 95%
20:00 +13°C° 0 mm 4 mps 752 mmHg 94%
21:00 +13°C° 0 mm 4 mps 753 mmHg 93%
22:00 +13°C° 0 mm 4 mps 753 mmHg 93%
23:00 +13°C° 0 mm 4 mps 753 mmHg 92%

3 November, Tuesday

Time Temperature Precipitation Wind Pressure Humidity
00:00 +14°C° 0 mm 4 mps 753 mmHg 92%
01:00 +14°C° 0 mm 4 mps 753 mmHg 92%
02:00 +14°C° 0 mm 4 mps 753 mmHg 91%
03:00 +14°C° 0 mm 4 mps 753 mmHg 90%
04:00 +14°C° 0 mm 4 mps 753 mmHg 90%
05:00 +14°C° 0 mm 4 mps 754 mmHg 90%
06:00 +14°C° 0 mm 4 mps 754 mmHg 90%
07:00 +14°C° 0 mm 4 mps 754 mmHg 91%
08:00 +14°C° 0 mm 4 mps 755 mmHg 91%
09:00 +14°C° 0 mm 4 mps 755 mmHg 90%
10:00 +15°C° 0 mm 4 mps 756 mmHg 90%
11:00 +15°C° 0 mm 5 mps 756 mmHg 81%
12:00 +15°C° 0 mm 5 mps 757 mmHg 72%
13:00 +15°C° 0 mm 6 mps 757 mmHg 63%
14:00 +14°C° 0 mm 5 mps 758 mmHg 64%
15:00 +13°C° 0 mm 4 mps 758 mmHg 65%
16:00 +12°C° 0 mm 3 mps 758 mmHg 66%
17:00 +11°C° 0 mm 3 mps 759 mmHg 68%
18:00 +12°C° 0 mm 2 mps 760 mmHg 70%
19:00 +10°C° 0 mm 2 mps 760 mmHg 72%
20:00 +10°C° 0 mm 2 mps 760 mmHg 74%
21:00 +9°C° 0 mm 2 mps 761 mmHg 75%
22:00 +9°C° 0 mm 2 mps 761 mmHg 77%
23:00 +9°C° 0 mm 2 mps 761 mmHg 78%

4 November, Wednesday

Time Temperature Precipitation Wind Pressure Humidity
00:00 +9°C° 0 mm 1 mps 761 mmHg 79%
01:00 +9°C° 0 mm 1 mps 762 mmHg 80%
02:00 +9°C° 0 mm 1 mps 762 mmHg 79%
03:00 +9°C° 0 mm 1 mps 762 mmHg 78%
04:00 +9°C° 0 mm 1 mps 762 mmHg 78%
05:00 +9°C° 0 mm 1 mps 762 mmHg 77%
06:00 +9°C° 0 mm 1 mps 762 mmHg 76%
07:00 +9°C° 0 mm 1 mps 762 mmHg 75%
08:00 +10°C° 0 mm 1 mps 763 mmHg 71%
09:00 +11°C° 0 mm 1 mps 763 mmHg 67%
10:00 +12°C° 0 mm 1 mps 763 mmHg 63%
11:00 +12°C° 0 mm 1 mps 763 mmHg 61%
12:00 +12°C° 0 mm 1 mps 763 mmHg 58%
13:00 +13°C° 0 mm 1 mps 763 mmHg 56%
14:00 +12°C° 0 mm 1 mps 763 mmHg 59%
15:00 +12°C° 0 mm 1 mps 763 mmHg 63%
16:00 +10°C° 0 mm 0 mps 763 mmHg 66%
17:00 +10°C° 0 mm 0 mps 763 mmHg 68%
18:00 +10°C° 0 mm 1 mps 763 mmHg 70%
19:00 +10°C° 0 mm 1 mps 764 mmHg 72%
20:00 +10°C° 0 mm 1 mps 764 mmHg 74%
21:00 +9°C° 0 mm 1 mps 764 mmHg 77%
22:00 +9°C° 0 mm 1 mps 764 mmHg 79%
23:00 +9°C° 0 mm 1 mps 764 mmHg 81%

5 November, Thursday

Time Temperature Precipitation Wind Pressure Humidity
00:00 +9°C° 0 mm 1 mps 764 mmHg 83%
01:00 +9°C° 0 mm 1 mps 764 mmHg 85%
02:00 +9°C° 0 mm 1 mps 764 mmHg 85%
03:00 +9°C° 0 mm 1 mps 764 mmHg 85%
04:00 +9°C° 0 mm 1 mps 764 mmHg 85%
05:00 +8°C° 0 mm 1 mps 764 mmHg 84%
06:00 +7°C° 0 mm 2 mps 765 mmHg 83%
07:00 +7°C° 0 mm 2 mps 765 mmHg 82%
08:00 +8°C° 0 mm 2 mps 765 mmHg 78%
09:00 +8°C° 0 mm 2 mps 765 mmHg 73%
10:00 +9°C° 0 mm 3 mps 765 mmHg 69%
11:00 +9°C° 0 mm 3 mps 765 mmHg 67%
12:00 +8°C° 0 mm 4 mps 765 mmHg 65%
13:00 +8°C° 0 mm 4 mps 765 mmHg 63%
14:00 +9°C° 0 mm 3 mps 765 mmHg 66%
15:00 +8°C° 0 mm 3 mps 766 mmHg 70%
16:00 +7°C° 0 mm 3 mps 766 mmHg 74%
17:00 +7°C° 0 mm 3 mps 766 mmHg 77%
18:00 +5°C° 0 mm 3 mps 766 mmHg 79%
19:00 +5°C° 0 mm 3 mps 767 mmHg 82%
20:00 +5°C° 0 mm 2 mps 767 mmHg 84%
21:00 +5°C° 0 mm 2 mps 767 mmHg 87%
22:00 +5°C° 0 mm 2 mps 767 mmHg 89%
23:00 +4°C° 0 mm 2 mps 767 mmHg 90%
Show more